Time,TemperatureF,DewpointF,PressureIn,WindDirection,WindDirectionDegrees,WindSpeedMPH,WindSpeedGustMPH,Humidity,HourlyPrecipIn,Conditions,Clouds,dailyrainin,SoftwareType,DateUTC
2013-06-16 00:02:00,78.4,74.0,29.92,SE,134,3.0,9.0,86,0.00,,,0.00,weatherlink.com 1.10,2013-06-16 05:02:00,
2013-06-16 00:17:00,78.0,74.0,29.93,SE,131,4.0,7.0,87,0.00,,,0.00,weatherlink.com 1.10,2013-06-16 05:17:00,
2013-06-16 00:32:00,77.8,74.0,29.92,SSE,158,4.0,9.0,88,0.00,,,0.00,weatherlink.com 1.10,2013-06-16 05:32:00,
2013-06-16 00:47:00,77.4,74.0,29.93,South,179,1.0,6.0,89,0.00,,,0.00,weatherlink.com 1.10,2013-06-16 05:47:00,
2013-06-16 01:03:00,77.0,74.0,29.93,SE,138,1.0,6.0,90,0.00,,,0.00,weatherlink.com 1.10,2013-06-16 06:03:00,
2013-06-16 01:18:00,76.7,74.0,29.93,SSE,150,4.0,5.0,91,0.00,,,0.00,weatherlink.com 1.10,2013-06-16 06:18:00,
2013-06-16 01:33:00,76.5,74.0,29.93,SE,134,1.0,5.0,92,0.00,,,0.00,weatherlink.com 1.10,2013-06-16 06:33:00,
2013-06-16 01:48:00,76.3,74.0,29.92,SE,142,2.0,4.0,93,0.00,,,0.00,weatherlink.com 1.10,2013-06-16 06:48:00,
2013-06-16 02:03:00,76.2,74.0,29.92,SE,143,1.0,4.0,93,0.00,,,0.00,weatherlink.com 1.10,2013-06-16 07:03:00,
2013-06-16 02:18:00,76.3,75.0,29.92,SSE,160,2.0,4.0,94,0.00,,,0.00,weatherlink.com 1.10,2013-06-16 07:18:00,
2013-06-16 02:33:00,76.5,75.0,29.91,SE,143,3.0,6.0,94,0.00,,,0.00,weatherlink.com 1.10,2013-06-16 07:33:00,
2013-06-16 02:48:00,76.4,75.0,29.91,SSE,155,2.0,6.0,94,0.00,,,0.00,weatherlink.com 1.10,2013-06-16 07:48:00,
2013-06-16 03:03:00,76.2,74.0,29.91,ESE,114,2.0,6.0,94,0.00,,,0.00,weatherlink.com 1.10,2013-06-16 08:03:00,
2013-06-16 03:18:00,76.2,74.0,29.90,SE,136,4.0,8.0,94,0.00,,,0.00,weatherlink.com 1.10,2013-06-16 08:18:00,
2013-06-16 03:33:00,76.1,74.0,29.91,SSE,153,1.0,6.0,94,0.00,,,0.00,weatherlink.com 1.10,2013-06-16 08:33:00,
2013-06-16 03:48:00,76.2,75.0,29.91,SSE,151,1.0,7.0,95,0.00,,,0.00,weatherlink.com 1.10,2013-06-16 08:48:00,
2013-06-16 04:03:00,76.2,74.0,29.91,SE,128,0.0,5.0,94,0.00,,,0.00,weatherlink.com 1.10,2013-06-16 09:03:00,
2013-06-16 04:18:00,76.1,75.0,29.91,SE,141,3.0,5.0,95,0.00,,,0.00,weatherlink.com 1.10,2013-06-16 09:18:00,
2013-06-16 04:33:00,76.1,75.0,29.91,SE,133,1.0,4.0,95,0.00,,,0.00,weatherlink.com 1.10,2013-06-16 09:33:00,
2013-06-16 04:48:00,76.1,75.0,29.91,SSE,147,3.0,4.0,95,0.00,,,0.00,weatherlink.com 1.10,2013-06-16 09:48:00,
2013-06-16 05:03:00,75.9,74.0,29.91,ESE,122,0.0,2.0,95,0.00,,,0.00,weatherlink.com 1.10,2013-06-16 10:03:00,
2013-06-16 05:18:00,75.8,74.0,29.92,SE,130,0.0,3.0,95,0.00,,,0.00,weatherlink.com 1.10,2013-06-16 10:18:00,
2013-06-16 05:33:00,75.6,74.0,29.93,ESE,122,0.0,1.0,95,0.00,,,0.00,weatherlink.com 1.10,2013-06-16 10:33:00,
2013-06-16 05:48:00,75.1,74.0,29.93,ESE,122,0.0,0.0,95,0.00,,,0.00,weatherlink.com 1.10,2013-06-16 10:48:00,
2013-06-16 06:03:00,74.7,73.0,29.94,ESE,122,0.0,0.0,95,0.00,,,0.00,weatherlink.com 1.10,2013-06-16 11:03:00,
2013-06-16 06:18:00,75.0,74.0,29.94,ESE,122,0.0,1.0,96,0.00,,,0.00,weatherlink.com 1.10,2013-06-16 11:18:00,
2013-06-16 06:33:00,75.0,74.0,29.95,ESE,120,0.0,1.0,96,0.00,,,0.00,weatherlink.com 1.10,2013-06-16 11:33:00,
2013-06-16 06:48:00,74.8,74.0,29.95,ESE,120,0.0,0.0,96,0.00,,,0.00,weatherlink.com 1.10,2013-06-16 11:48:00,
2013-06-16 07:03:00,75.1,74.0,29.95,SE,139,0.0,0.0,96,0.00,,,0.00,weatherlink.com 1.10,2013-06-16 12:03:00,
2013-06-16 07:18:00,75.9,75.0,29.95,SE,143,0.0,1.0,96,0.00,,,0.00,weatherlink.com 1.10,2013-06-16 12:18:00,
2013-06-16 07:33:00,77.5,76.0,29.95,SW,219,0.0,2.0,95,0.00,,,0.00,weatherlink.com 1.10,2013-06-16 12:33:00,
2013-06-16 07:48:00,77.7,76.0,29.96,SSE,152,1.0,3.0,93,0.00,,,0.00,weatherlink.com 1.10,2013-06-16 12:48:00,
2013-06-16 08:03:00,78.2,76.0,29.96,SW,218,2.0,5.0,92,0.00,,,0.00,weatherlink.com 1.10,2013-06-16 13:03:00,
2013-06-16 08:18:00,78.4,76.0,29.96,SW,229,2.0,5.0,91,0.00,,,0.00,weatherlink.com 1.10,2013-06-16 13:18:00,
2013-06-16 08:33:00,78.1,75.0,29.97,South,174,2.0,7.0,91,0.00,,,0.00,weatherlink.com 1.10,2013-06-16 13:33:00,
2013-06-16 08:48:00,78.6,76.0,29.97,SSE,156,1.0,8.0,90,0.00,,,0.00,weatherlink.com 1.10,2013-06-16 13:48:00,
2013-06-16 09:03:00,79.3,76.0,29.97,SW,217,5.0,9.0,89,0.00,,,0.00,weatherlink.com 1.10,2013-06-16 14:03:00,
2013-06-16 09:18:00,80.5,76.0,29.98,South,179,4.0,10.0,86,0.00,,,0.00,weatherlink.com 1.10,2013-06-16 14:18:00,
2013-06-16 09:33:00,80.6,76.0,29.97,SSE,162,2.0,10.0,85,0.00,,,0.00,weatherlink.com 1.10,2013-06-16 14:33:00,
2013-06-16 09:48:00,80.9,76.0,29.98,SW,218,2.0,8.0,85,0.00,,,0.00,weatherlink.com 1.10,2013-06-16 14:48:00,
2013-06-16 10:03:00,82.9,76.0,29.98,SSW,207,7.0,11.0,80,0.00,,,0.00,weatherlink.com 1.10,2013-06-16 15:03:00,
2013-06-16 10:19:00,83.8,76.0,29.98,SE,145,6.0,10.0,78,0.00,,,0.00,weatherlink.com 1.10,2013-06-16 15:19:00,
2013-06-16 10:34:00,83.9,76.0,29.98,SSE,159,2.0,8.0,77,0.00,,,0.00,weatherlink.com 1.10,2013-06-16 15:34:00,
2013-06-16 10:49:00,84.3,76.0,29.98,South,191,5.0,16.0,76,0.00,,,0.00,weatherlink.com 1.10,2013-06-16 15:49:00,
2013-06-16 11:04:00,85.6,76.0,29.97,ESE,123,3.0,10.0,74,0.00,,,0.00,weatherlink.com 1.10,2013-06-16 16:04:00,
2013-06-16 11:19:00,85.7,77.0,29.98,SSE,162,3.0,12.0,74,0.00,,,0.00,weatherlink.com 1.10,2013-06-16 16:19:00,
2013-06-16 11:34:00,86.6,77.0,29.98,SW,214,6.0,11.0,73,0.00,,,0.00,weatherlink.com 1.10,2013-06-16 16:34:00,
2013-06-16 11:49:00,87.1,76.0,29.98,SSW,195,7.0,11.0,70,0.00,,,0.00,weatherlink.com 1.10,2013-06-16 16:49:00,
2013-06-16 12:04:00,87.5,77.0,29.97,SSW,198,4.0,8.0,70,0.00,,,0.00,weatherlink.com 1.10,2013-06-16 17:04:00,
2013-06-16 12:19:00,88.1,75.0,29.97,SE,141,5.0,12.0,65,0.00,,,0.00,weatherlink.com 1.10,2013-06-16 17:19:00,
2013-06-16 12:34:00,89.0,76.0,29.97,South,170,7.0,13.0,65,0.00,,,0.00,weatherlink.com 1.10,2013-06-16 17:34:00,
2013-06-16 12:49:00,88.7,75.0,29.96,SSE,151,6.0,11.0,64,0.00,,,0.00,weatherlink.com 1.10,2013-06-16 17:49:00,
2013-06-16 13:04:00,89.2,75.0,29.96,SE,125,6.0,10.0,63,0.00,,,0.00,weatherlink.com 1.10,2013-06-16 18:04:00,
2013-06-16 13:19:00,89.9,75.0,29.95,SSE,149,6.0,10.0,62,0.00,,,0.00,weatherlink.com 1.10,2013-06-16 18:19:00,
2013-06-16 13:34:00,90.2,75.0,29.95,SSW,198,5.0,12.0,61,0.00,,,0.00,weatherlink.com 1.10,2013-06-16 18:34:00,
2013-06-16 13:49:00,90.3,74.0,29.95,SE,131,6.0,11.0,59,0.00,,,0.00,weatherlink.com 1.10,2013-06-16 18:49:00,
2013-06-16 14:04:00,90.8,74.0,29.94,SSW,193,6.0,11.0,58,0.00,,,0.00,weatherlink.com 1.10,2013-06-16 19:04:00,
2013-06-16 14:19:00,91.0,74.0,29.94,SE,144,6.0,10.0,57,0.00,,,0.00,weatherlink.com 1.10,2013-06-16 19:19:00,
2013-06-16 14:34:00,91.2,74.0,29.94,SW,217,5.0,10.0,58,0.00,,,0.00,weatherlink.com 1.10,2013-06-16 19:34:00,
2013-06-16 14:49:00,92.3,74.0,29.93,SSE,148,7.0,10.0,55,0.00,,,0.00,weatherlink.com 1.10,2013-06-16 19:49:00,
2013-06-16 15:04:00,92.5,74.0,29.92,SSE,160,3.0,10.0,55,0.00,,,0.00,weatherlink.com 1.10,2013-06-16 20:04:00,
2013-06-16 15:19:00,93.0,73.0,29.91,SSW,212,3.0,12.0,53,0.00,,,0.00,weatherlink.com 1.10,2013-06-16 20:19:00,
2013-06-16 15:34:00,93.0,73.0,29.91,SSE,147,3.0,9.0,52,0.00,,,0.00,weatherlink.com 1.10,2013-06-16 20:34:00,
2013-06-16 15:49:00,93.3,74.0,29.90,SE,142,7.0,9.0,54,0.00,,,0.00,weatherlink.com 1.10,2013-06-16 20:49:00,
2013-06-16 16:04:00,93.6,73.0,29.90,South,173,2.0,9.0,51,0.00,,,0.00,weatherlink.com 1.10,2013-06-16 21:04:00,
2013-06-16 16:19:00,93.6,72.0,29.89,SE,132,4.0,9.0,50,0.00,,,0.00,weatherlink.com 1.10,2013-06-16 21:19:00,
2013-06-16 16:34:00,94.0,71.0,29.89,SSE,147,4.0,9.0,48,0.00,,,0.00,weatherlink.com 1.10,2013-06-16 21:34:00,
2013-06-16 16:49:00,94.0,71.0,29.89,SSW,205,1.0,8.0,48,0.00,,,0.00,weatherlink.com 1.10,2013-06-16 21:49:00,
2013-06-16 17:04:00,93.9,71.0,29.88,SSE,150,1.0,8.0,48,0.00,,,0.00,weatherlink.com 1.10,2013-06-16 22:04:00,
2013-06-16 17:19:00,94.8,72.0,29.88,SSE,156,4.0,7.0,47,0.00,,,0.00,weatherlink.com 1.10,2013-06-16 22:19:00,
2013-06-16 17:34:00,94.8,73.0,29.87,SSW,195,3.0,7.0,49,0.00,,,0.00,weatherlink.com 1.10,2013-06-16 22:34:00,
2013-06-16 17:50:00,94.6,72.0,29.87,SSE,165,3.0,7.0,48,0.00,,,0.00,weatherlink.com 1.10,2013-06-16 22:50:00,
2013-06-16 18:05:00,94.9,74.0,29.86,SE,138,1.0,6.0,51,0.00,,,0.00,weatherlink.com 1.10,2013-06-16 23:05:00,
2013-06-16 18:20:00,93.6,75.0,29.86,SE,135,5.0,11.0,55,0.00,,,0.00,weatherlink.com 1.10,2013-06-16 23:20:00,
2013-06-16 18:35:00,92.4,75.0,29.86,ESE,105,5.0,8.0,57,0.00,,,0.00,weatherlink.com 1.10,2013-06-16 23:35:00,
2013-06-16 18:50:00,92.2,76.0,29.86,SE,142,4.0,7.0,59,0.00,,,0.00,weatherlink.com 1.10,2013-06-16 23:50:00,
2013-06-16 19:05:00,91.8,75.0,29.86,SE,145,5.0,7.0,58,0.00,,,0.00,weatherlink.com 1.10,2013-06-17 00:05:00,
2013-06-16 19:20:00,91.2,75.0,29.86,SSE,163,8.0,11.0,59,0.00,,,0.00,weatherlink.com 1.10,2013-06-17 00:20:00,
2013-06-16 19:35:00,89.5,75.0,29.86,SE,146,3.0,9.0,63,0.00,,,0.00,weatherlink.com 1.10,2013-06-17 00:35:00,
2013-06-16 19:50:00,88.8,75.0,29.86,SSE,150,3.0,8.0,64,0.00,,,0.00,weatherlink.com 1.10,2013-06-17 00:50:00,
2013-06-16 20:05:00,87.6,75.0,29.86,SE,132,6.0,11.0,67,0.00,,,0.00,weatherlink.com 1.10,2013-06-17 01:05:00,
2013-06-16 20:20:00,86.2,75.0,29.86,SE,142,7.0,16.0,70,0.00,,,0.00,weatherlink.com 1.10,2013-06-17 01:20:00,
2013-06-16 20:35:00,84.9,75.0,29.87,SSE,158,7.0,10.0,73,0.00,,,0.00,weatherlink.com 1.10,2013-06-17 01:35:00,
2013-06-16 20:50:00,84.1,76.0,29.87,SSE,162,4.0,10.0,76,0.00,,,0.00,weatherlink.com 1.10,2013-06-17 01:50:00,
2013-06-16 21:05:00,83.4,76.0,29.88,SSE,156,3.0,7.0,78,0.00,,,0.00,weatherlink.com 1.10,2013-06-17 02:05:00,
2013-06-16 21:20:00,82.8,76.0,29.88,SE,143,4.0,10.0,80,0.00,,,0.00,weatherlink.com 1.10,2013-06-17 02:20:00,
2013-06-16 21:35:00,82.1,76.0,29.89,SSE,159,4.0,8.0,81,0.00,,,0.00,weatherlink.com 1.10,2013-06-17 02:35:00,
2013-06-16 21:50:00,81.5,75.0,29.90,SSE,153,2.0,7.0,81,0.00,,,0.00,weatherlink.com 1.10,2013-06-17 02:50:00,
2013-06-16 22:05:00,81.3,75.0,29.90,SSE,159,3.0,10.0,81,0.00,,,0.00,weatherlink.com 1.10,2013-06-17 03:05:00,
2013-06-16 22:20:00,81.0,75.0,29.90,SSE,162,7.0,12.0,81,0.00,,,0.00,weatherlink.com 1.10,2013-06-17 03:20:00,
2013-06-16 22:35:00,80.7,75.0,29.91,SE,139,5.0,11.0,82,0.00,,,0.00,weatherlink.com 1.10,2013-06-17 03:35:00,
2013-06-16 22:50:00,80.3,75.0,29.92,SSE,167,4.0,11.0,83,0.00,,,0.00,weatherlink.com 1.10,2013-06-17 03:50:00,
2013-06-16 23:06:00,79.8,75.0,29.92,SSE,156,4.0,7.0,84,0.00,,,0.00,weatherlink.com 1.10,2013-06-17 04:06:00,
2013-06-16 23:20:00,79.6,75.0,29.92,SE,143,6.0,9.0,85,0.00,,,0.00,weatherlink.com 1.10,2013-06-17 04:20:00,
2013-06-16 23:35:00,79.3,75.0,29.92,South,174,4.0,9.0,86,0.00,,,0.00,weatherlink.com 1.10,2013-06-17 04:35:00,
2013-06-16 23:50:00,79.0,75.0,29.91,SE,139,4.0,10.0,86,0.00,,,0.00,weatherlink.com 1.10,2013-06-17 04:50:00,